This demonstration page uses our WeatherBlox Daily Observations layout. Learn more.

41.55636, -103.73856

Hourly Observations for August 13, 2020

Temp ( °F °C ) Dew Point ( °F °C ) Humidity (%) Winds ( mph kmh ) Pressure ( in mb ) Visibility ( mi km ) Precip ( " mm )
12:58 am 00:58 Clear 83 28.3 37 2.8 19 19 SSE 12 19 29.82 1010 10 16.0934 0 0
1:58 am 01:58 Mostly Cloudy 80 26.7 41 5.1 25 25 SE 18 30 29.83 1010 10 16.0934 0 0
2:58 am 02:58 Partly Cloudy 75 24 46 7.9 36 36 W 8 13 29.91 1013 10 16.0934 0 0
3:58 am 03:58 Mostly Cloudy 74 23.6 49 9.4 41 41 S 7 11 29.91 1013 10 16.0934 0 0
4:58 am 04:58 Mostly Cloudy 75 23.7 57 13.7 54 54 SSE 26 43 29.87 1012 10 16.0934 0 0
5:58 am 05:58 Clear 72 22.1 58 14.6 63 63 S 21 33 29.86 1011 10 16.0934 0 0
6:58 am 06:58 Mostly Cloudy 71 21.7 58 14.3 63 63 SSW 15 24 29.86 1011 10 16.0934 0 0
7:58 am 07:58 Clear 70 21.3 59 14.8 67 67 SSW 22 35 29.87 1012 10 16.0934 0 0
8:58 am 08:58 Clear 67 19.4 59 14.8 75 75 SSW 23 37 29.89 1012 10 16.0934 0 0
9:58 am 09:58 Clear 65 18.4 58 14.6 79 79 W 13 20 29.92 1013 10 16.0934 0 0
10:58 am 10:58 Clear 65 18.5 58 14.4 77 77 SW 18 30 29.89 1012 10 16.0934 0 0
11:58 am 11:58 Clear 64 17.9 58 14.5 81 81 WSW 12 19 29.91 1013 10 16.0934 0 0
12:58 pm 12:58 Sunny 64 17.5 53 11.6 69 69 SW 8 13 29.95 1014 10 16.0934 0 0
1:58 pm 13:58 Partly Cloudy 69 20.3 48 8.8 48 48 WSW 6 9 29.95 1014 10 16.0934 0 0
2:58 pm 14:58 Sunny 78 25.6 37 2.7 23 23 W 7 11 29.94 1014 10 16.0934 0 0
3:58 pm 15:58 Sunny 85 29.2 31 -0.4 15 15 WNW 10 17 29.93 1014 10 16.0934 0 0
4:58 pm 16:58 Sunny 89 31.4 32 0 13 13 N 10 17 29.93 1013 10 16.0934 0 0
5:58 pm 17:58 Sunny 90 32.4 26 -3.2 10 10 N 9 15 29.91 1013 10 16.0934 0 0
6:58 pm 18:58 Sunny 92 33.5 27 -2.6 10 10 N 9 15 29.89 1012 10 16.0934 0 0
7:58 pm 19:58 Sunny 93 33.7 25 -3.7 9 9 NNW 6 9 29.87 1011 10 16.0934 0 0
8:58 pm 20:58 Sunny 96 35.5 25 -3.7 8 8 N 10 17 29.85 1011 10 16.0934 0 0
9:58 pm 21:58 Sunny 94 34.3 28 -2.3 9 9 S 8 13 29.84 1011 10 16.0934 0 0
10:58 pm 22:58 Mostly Sunny 94 34.2 27 -2.6 9 9 Calm 29.84 1011 10 16.0934 0 0
11:58 pm 23:58 Mostly Sunny 90 32.2 28 -2.2 11 11 SW 10 17 29.85 1011 10 16.0934 0 0

Powered by AerisWeather